Location: *
(51.1248°S, 108.4023°W)
Time: 04:17:36
(UTC+00:00)

Landsat 5 - Pass Details

Date: 15 June 2021
Orbit: 529 x 652 km, 98.2° (Epoch: 31 July)

Event Time Altitude Azimuth Distance (km) Brightness Sun altitude
Rises 12:53:01 0° 164° (SSE) 2,965 7.1 -21.2°
Reaches altitude 10° 12:55:18 10° 161° (SSE) 2,032 6.3 -20.8°
Maximum altitude 12:59:42 66° 78° (ENE) 676 3.9 -20.2°
Drops below altitude 10° 13:03:53 10° 354° (N) 1,930 6.2 -19.5°
Sets 13:06:00 0° 351° (N) 2,802 7.0 -19.2°
